カタログに戻る

COSMOS 1030 DEB

運用中HEO
NORAD 39447·DEBRIS·🇷🇺 Russia

打ち上げ Sep 6, 1978 から Plesetsk Cosmodrome

Loading…

次のパス (今後24時間)

TLE

最新Source: Space-Track

元期: Sep 12, 2026, 10:50 UTC

1 39447U 78083T   26255.45151599  .00000780  00000-0  00000-0 0  9997
2 39447  63.7541 179.0755 7042164   4.2188 359.4066  2.00343104 84491

AllMySatでCOSMOS 1030 DEBをリアルタイム追跡

Download on the App Store